This demonstration page uses our WeatherBlox Daily Observations layout. Learn more.

Left ArrowRight Arrow

Hourly Observations for September 3, 2020

Temp ( °F °C ) Dew Point ( °F °C ) Humidity (%) Winds ( mph kmh ) Pressure ( in mb ) Visibility ( mi km ) Precip ( " mm )
12:52 am 00:52 Clear 73 22.8 63 17.2 71 71 S 12 19 29.75 1008 10 16 0.00 0.00
1:52 am 01:52 Clear 73 22.8 63 17.2 71 71 S 12 19 29.74 1007 10 16 0.00 0.00
2:52 am 02:52 Mostly Clear 72 22.2 63 17.2 73 73 S 12 19 29.74 1007 10 16 0.00 0.00
3:52 am 03:52 Mostly Clear 69 20.6 63 17.2 81 81 SSE 12 19 29.73 1007 10 16 0.00 0.00
4:52 am 04:52 Clear 69 20.6 63 17.2 81 81 SSE 12 19 29.72 1007 10 16 0.00 0.00
5:52 am 05:52 Clear 70 21.1 63 17.2 79 79 SSW 5 7 29.77 1008 10 16 0.00 0.00
6:52 am 06:52 Mostly Clear 69 20.6 63 17.2 81 81 WNW 9 15 29.80 1009 10 16 0.00 0.00
7:52 am 07:52 Sunny 68 20 54 12.2 61 61 NNW 17 28 29.86 1011 10 16 0.00 0.00
8:52 am 08:52 Sunny 69 20.6 51 10.6 53 53 NNW 24 39 29.89 1012 10 16 0.00 0.00
9:52 am 09:52 Sunny 70 21.1 47 8.3 44 44 N 25 41 29.94 1014 10 16 0.00 0.00
10:52 am 10:52 Mostly Sunny 72 22.2 45 7.2 38 38 NNW 20 31 29.98 1015 10 16 0.00 0.00
11:52 am 11:52 Sunny 73 22.8 45 7.2 37 37 NNW 17 28 29.99 1016 10 16 0.00 0.00
12:52 pm 12:52 Sunny 76 24.4 43 6.1 31 31 NNW 15 24 30.00 1016 10 16 0.00 0.00
1:52 pm 13:52 Sunny 78 25.6 41 5 27 27 NNW 17 28 30.01 1016 10 16 0.00 0.00
2:52 pm 14:52 Sunny 78 25.6 41 5 27 27 NNW 15 24 30.01 1016 10 16 0.00 0.00
3:52 pm 15:52 Sunny 80 26.7 42 5.6 26 26 N 7 11 30.00 1016 10 16 0.00 0.00
4:52 pm 16:52 Sunny 79 26.1 42 5.6 27 27 N 17 28 30.00 1016 10 16 0.00 0.00
5:52 pm 17:52 Sunny 79 26.1 39 3.9 24 24 NNW 16 26 29.99 1016 10 16 0.00 0.00
6:52 pm 18:52 Mostly Sunny 76 24.4 40 4.4 27 27 NNW 9 15 30.01 1016 10 16 0.00 0.00
7:52 pm 19:52 Mostly Sunny 68 20 45 7.2 44 44 NNW 6 9 30.02 1017 10 16 0.00 0.00
8:52 pm 20:52 Mostly Clear 65 18.3 47 8.3 52 52 NNW 5 7 30.04 1017 10 16 0.00 0.00
9:52 pm 21:52 Clear 63 17.2 49 9.4 60 60 Calm 30.07 1018 10 16 0.00 0.00
10:52 pm 22:52 Clear 61 16.1 52 11.1 72 72 Calm 30.09 1019 10 16 0.00 0.00
11:52 pm 23:52 Clear 61 16.1 48 8.9 63 63 Calm 30.10 1019 10 16 0.00 0.00

Powered by AerisWeather